Location: Morlupo
(42.1333°N, 12.5000°E)
Time: 16:22:45
(UTC+00:00)

Meteor 1-21 - Pass Details

Date: 18 September 2020
Orbit: 845 x 887 km, 81.2° (Epoch: 25 October)

Event Time Altitude Azimuth Distance (km) Brightness Sun altitude
Rises 18:14:37 0° 349° (N) 3,426 7.7 -12.0°
Reaches altitude 10° 18:17:03 10° 349° (NNW) 2,482 7.0 -12.4°
Maximum altitude 18:22:40 84° 263° (W) 856 4.3 -13.5°
Drops below altitude 10° 18:28:15 10° 175° (S) 2,459 6.4 -14.5°
Sets 18:30:39 0° 174° (S) 3,391 7.1 -14.9°
